Location: Buffign�court
(47.8126°N, 6.0176°E)
Time: 17:15:33
(UTC+00:00)

Cosmos 676 Rocket - Pass Details

Date: 16 June 2021
Orbit: 754 x 784 km, 74.0° (Epoch: 03 August)

Event Time Altitude Azimuth Distance (km) Brightness Sun altitude
Rises 20:06:38 0° 336° (NNW) 3,278 8.7 -4.6°
Reaches altitude 10° 20:09:01 10° 335° (NNW) 2,348 7.9 -4.9°
Maximum altitude 20:14:22 79° 250° (WSW) 804 4.2 -5.6°
Drops below altitude 10° 20:19:41 10° 164° (SSE) 2,336 6.0 -6.2°
Enters shadow 20:21:03 - 164° (SSE) 2,868 6.4 -6.4°
